This is the latest recevied weather packets stored in our database for station/object EB5AGF-13. If no packets are shown the sender has not sent any weather packets the latest 10 day(s).
| Time | Temp. | Humidity | Pressure | Rain* | Wind** | Luminosity | Snow |
|---|---|---|---|---|---|---|---|
| 1777828297 | 20.56° C | 82% | 1008.1 hPa | 0 mm | 3.58 m/s, 213° | 107 W/m² | - |
| 1777827993 | 20.56° C | 81% | 1008.3 hPa | 0 mm | 3.13 m/s, 185° | 134 W/m² | - |
| 1777827689 | 20.56° C | 81% | 1008.3 hPa | 0 mm | 3.13 m/s, 200° | 147 W/m² | - |
| 1777827386 | 20.56° C | 80% | 1008.5 hPa | 0 mm | 3.13 m/s, 185° | 160 W/m² | - |
| 1777827082 | 20.56° C | 81% | 1008.6 hPa | 0 mm | 2.68 m/s, 180° | 130 W/m² | - |
| 1777826778 | 20.56° C | 79% | 1008.6 hPa | 0 mm | 1.79 m/s, 285° | 144 W/m² | - |
| 1777826473 | 21.11° C | 79% | 1008.7 hPa | 0 mm | 3.58 m/s, 214° | 174 W/m² | - |
| 1777826169 | 21.11° C | 79% | 1008.6 hPa | 0 mm | 1.79 m/s, 180° | 115 W/m² | - |
| 1777825866 | 21.67° C | 77% | 1008.4 hPa | 0 mm | 1.79 m/s, 208° | 210 W/m² | - |
| 1777825561 | 21.11° C | 77% | 1008.8 hPa | 0 mm | 1.79 m/s, 291° | 166 W/m² | - |
| 1777825258 | 21.11° C | 77% | 1008.7 hPa | 0 mm | 1.34 m/s, 226° | 220 W/m² | - |
| 1777824954 | 21.11° C | 77% | 1008.9 hPa | 0 mm | 1.34 m/s, 227° | 220 W/m² | - |
| 1777824651 | 21.11° C | 78% | 1009 hPa | 0 mm | 2.24 m/s, 204° | 227 W/m² | - |
| 1777824346 | 21.11° C | 78% | 1009.1 hPa | 0 mm | 2.68 m/s, 202° | 214 W/m² | - |
| 1777824042 | 21.11° C | 78% | 1008.7 hPa | 0 mm | 0.89 m/s, 273° | 204 W/m² | - |
| 1777823738 | 21.67° C | 76% | 1009.2 hPa | 0 mm | 0.89 m/s, 148° | 208 W/m² | - |
| 1777823434 | 21.11° C | 78% | 1009.3 hPa | 0 mm | 0.89 m/s, 156° | 229 W/m² | - |
| 1777823129 | 21.67° C | 76% | 1009.3 hPa | 0 mm | 1.79 m/s, 201° | 199 W/m² | - |
| 1777822825 | 21.67° C | 75% | 1009.4 hPa | 0 mm | 1.34 m/s, 195° | 228 W/m² | - |
| 1777822522 | 21.67° C | 75% | 1009.3 hPa | 0 mm | 0.89 m/s, 212° | 276 W/m² | - |
| 1777822219 | 21.67° C | 75% | 1009.4 hPa | 0 mm | 2.24 m/s, 217° | 256 W/m² | - |
| 1777821914 | 21.67° C | 74% | 1009.3 hPa | 0 mm | 0.45 m/s, 242° | 292 W/m² | - |
| 1777821610 | 21.67° C | 74% | 1009.4 hPa | 0 mm | 0.89 m/s, 225° | 276 W/m² | - |
| 1777821306 | 22.22° C | 73% | 1009.3 hPa | 0 mm | 0.89 m/s, 275° | 275 W/m² | - |
| 1777821002 | 22.22° C | 71% | 1009.1 hPa | 0 mm | 1.79 m/s, 238° | 326 W/m² | - |
* Rain latest hour (hover to see other rain measurements)
** Current wind speed in m/s (hover to see current wind gust speed)